[[{"header":{"parameterUnit":"m.s-1","parameterCategory":1,"la1":30.2991,"la2":30.254,"lo1":-89.0895,"lo2":-89.0444,"dy":0.0017,"dx":0.0017,"nx":28,"ny":28,"refTime":"2025-03-15T03:00:00:Z","depth":0,"parameterNumber":2,"parameterNumberName":"U-component_of_WINDS"},"data":[0,0,0,0,0,0,0,0,0,0,0,0,0,0,0,0,0,0,0,0,0,0,0,0,0,0,0,0,0,0,0,0,0,0,0,0,0,0,0,0,0,0,0,0,0,0,0,0,0,0,0,0,0,0,0,0,0,0,-4.9956,-4.9958,0,-5.0102,-5.0104,-5.0105,-5.0146,-5.0145,-5.0144,-5.0144,-5.029,-5.0294,-5.0299,0,0,0,0,0,0,0,0,0,0,0,0,0,-4.9711,-4.9715,-4.9956,-4.9958,-4.996,-5.0102,-5.0104,-5.0106,-5.0146,-5.0145,-5.0144,-5.0143,-5.0288,-5.0294,-5.0299,0,0,0,0,0,0,0,0,0,0,0,0,0,-4.9833,-4.9716,-4.9956,-4.9997,-5.0002,-5.0101,-5.0104,-5.0106,-5.0146,-5.0145,-5.0144,-5.0143,-5.0287,-5.0293,-5.03,-5.0368,0,0,-5.0322,-5.0325,0,0,0,0,0,0,0,0,-4.9826,-4.9842,-4.9989,-4.9995,-5.0001,-5.0105,-5.0071,-5.0194,-5.0147,-5.0092,-5.0144,-5.0142,-5.0229,-5.0241,-5.0271,-5.0374,-5.0381,-5.0322,-5.0326,-5.0329,-5.0331,0,0,0,0,0,0,0,-4.9817,-4.9836,-5.0014,-4.9991,-4.9998,-5.0008,-5.0024,-5.0094,-5.0165,-5.0096,-5.01,-5.0117,-5.0232,-5.0264,-5.0274,-5.0383,-5.0322,-5.0328,-5.0332,-5.0335,-5.0549,-5.055,0,0,0,0,0,0,-4.9802,-4.9828,-5.0009,-5.0018,-4.9908,-5.0013,-5.0031,-5.0072,-5.0165,-5.0178,-5.0117,-5.0118,-5.0252,-5.0266,-5.028,-5.0364,-5.0329,-5.0336,-5.034,-5.0548,-5.0549,-5.0551,0,0,0,0,0,0,-4.9797,-4.9818,-5.0003,-4.9924,-4.9949,-5.0019,-5.0065,-5.0076,-5.0108,-5.0181,-5.0193,-5.0137,-5.0252,-5.027,-5.0346,-5.0369,-5.0339,-5.0345,-5.0546,-5.0548,-5.055,-5.0533,0,0,0,0,0,0,-4.9789,-4.9816,-4.9842,-4.9925,-4.9953,-5.0067,-5.0066,-5.008,-5.012,-5.0122,-5.0202,-5.0215,-5.0252,-5.0335,-5.0352,-5.0379,-5.0351,-5.0544,-5.0547,-5.0549,-5.0532,-5.0534,-5.0537,0,0,0,0,0,-4.978,-4.9831,-4.9843,-4.9865,-4.9988,-5.0069,-5.0085,-5.0128,-5.0122,-5.0149,-5.0196,-5.0212,-5.0365,-5.0342,-5.0362,-5.0391,-5.0542,-5.0546,-5.0549,-5.0531,-5.0534,-5.0537,0,0,0,0,0,0,-4.9748,-4.9843,-4.9857,-4.9936,-4.9994,-5.0075,-5.0111,-5.013,-5.019,-5.0189,-5.024,-5.0258,-5.033,-5.0369,-5.0342,-5.0461,-5.0454,-5.0461,-5.0433,-5.0436,-5.0439,-5.0427,-5.0357,0,0,0,0,0,-4.9751,-4.981,-4.9888,-4.995,-4.9979,-5.004,-5.0077,-5.0105,-5.0167,-5.0191,-5.0244,-5.0302,-5.0364,-5.0402,-5.0463,-5.0538,-5.0556,-5.0568,-5.057,-5.0572,-5.0577,-5.0619,-5.0625,-5.0562,-5.0562,-5.0562,0,0,-4.9756,-4.9815,-4.9848,-4.9946,-4.9994,-5.0052,-5.006,-5.0122,-5.0166,-5.0201,-5.0275,-5.0316,-5.0384,-5.046,-5.0496,-5.0494,-5.0599,-5.0576,-5.0577,-5.0582,-5.0623,-5.0629,-5.0634,-5.0564,-5.0564,-5.0564,0,0,-4.9794,-4.9845,-4.9902,-4.9951,-5.0025,-5.0065,-5.0079,-5.0157,-5.0186,-5.0262,-5.0289,-5.0342,-5.0447,-5.0494,-5.0532,-5.059,-5.0607,-5.0609,-5.0621,-5.0661,-5.0666,-5.067,-5.069,-5.0696,-5.0614,-5.0614,-5.0614,0,-4.9791,-4.9881,-4.9929,-4.999,-5.0031,-5.0067,-5.0125,-5.0169,-5.0258,-5.0286,-5.0283,-5.0415,-5.0464,-5.0551,-5.0565,-5.0595,-5.0612,-5.0598,-5.0662,-5.0667,-5.0672,-5.0691,-5.0698,-5.0614,-5.0614,-5.0614,-5.0614,0,-4.9872,-4.9935,-4.9972,-5.0058,-5.0104,-5.0162,-5.0218,-5.0259,-5.0285,-5.0325,-5.0402,-5.0462,-5.0535,-5.0558,-5.0583,-5.0649,-5.0645,-5.0652,-5.0645,-5.0676,-5.0695,-5.0703,-5.0613,-5.0613,-5.0613,-5.0613,0,0,-4.9893,-5.0006,-5.0018,-5.0057,-5.0142,-5.0191,-5.0251,-5.0324,-5.0357,-5.0418,-5.0469,-5.0557,-5.0564,-5.0606,-5.0637,-5.0673,-5.0714,-5.0675,-5.0677,-5.0679,-5.0789,-5.0782,-5.0789,-5.0726,-5.0728,-5.0729,-5.0782,0,-4.994,-5.005,-5.0095,-5.0184,-5.0241,-5.0277,-5.033,-5.0387,-5.0426,-5.0481,-5.0525,-5.0586,-5.0591,-5.0617,-5.0654,-5.0701,-5.0736,-5.0698,-5.0773,-5.0775,-5.0752,-5.0799,-5.0793,-5.0839,-5.079,-5.0791,-5.0792,0,-5.001,-5.0072,-5.0166,-5.0244,-5.027,-5.0316,-5.0386,-5.0438,-5.0504,-5.053,-5.0579,-5.0608,-5.0672,-5.0663,-5.0751,-5.0724,-5.0758,-5.0786,-5.0789,-5.0795,-5.0784,-5.0806,-5.0856,-5.0862,-5.0804,-5.0803,-5.0803,0,-5.0013,-5.0121,-5.0191,-5.0224,-5.0316,-5.0348,-5.0388,-5.0453,-5.0493,-5.0555,-5.0581,-5.0649,-5.0685,-5.0737,-5.0783,-5.0773,-5.0867,-5.0862,-5.0889,-5.0888,-5.0905,-5.0903,-5.0959,-5.093,-5.093,-5.093,-5.093,0,-5.0061,-5.0116,-5.0194,-5.0236,-5.03,-5.0351,-5.0413,-5.0455,-5.0512,-5.0563,-5.0599,-5.0646,-5.0706,-5.076,-5.0797,-5.0864,-5.0881,-5.0903,-5.0912,-5.0899,-5.0895,-5.092,-5.0917,-5.0932,-5.0932,-5.0931,-5.0931,0,-5.0074,-5.0128,-5.0207,-5.0289,-5.0311,-5.0353,-5.0423,-5.0466,-5.0508,-5.0572,-5.059,-5.0656,-5.0723,-5.0775,-5.0861,-5.0886,-5.0955,-5.0966,-5.0933,-5.0937,-5.0961,-5.0957,-5.1033,-5.1045,-5.1009,-5.101,-5.101,0,-5.01,-5.0143,-5.023,-5.0268,-5.0308,-5.0367,-5.0409,-5.0462,-5.0504,-5.0583,-5.0616,-5.0685,-5.0742,-5.0846,-5.0901,-5.0967,-5.0979,-5.1001,-5.0989,-5.0974,-5.0977,-5.0973,-5.0977,-5.1001,-5.1001,-5.1002,-5.1002,0,-5.0139,-5.0164,-5.0223,-5.0293,-5.0342,-5.0399,-5.0456,-5.0485,-5.0548,-5.0594,-5.0662,-5.0707,-5.0796,-5.0863,-5.0935,-5.0976,-5.0999,-5.1006,-5.1015,-5.1001,-5.0979,-5.099,-5.0935,-5.1003,-5.1003,-5.1003,-5.1003,-5.1003,-5.0158,-5.0198,-5.0266,-5.0331,-5.0381,-5.0434,-5.0478,-5.0526,-5.0584,-5.0661,-5.0689,-5.0759,-5.0824,-5.0923,-5.0964,-5.1019,-5.1021,-5.1035,-5.1038,-5.104,-5.1038,-5.0973,-5.1033,-5.1033,-5.1033,-5.1033,-5.1033,0,-5.0198,-5.0243,-5.0303,-5.0383,-5.0434,-5.0453,-5.0518,-5.0559,-5.0621,-5.068,-5.0737,-5.0815,-5.0881,-5.0942,-5.1011,-5.1043,-5.1056,-5.1059,-5.1056,-5.1065,-5.1034,-5.1018,-5.1048,-5.1048,-5.1048,-5.1048,-5.1048,-5.1048,-5.0224,-5.0293,-5.0326,-5.042,-5.0465,-5.0535,-5.057,-5.0619,-5.0667,-5.0753,-5.0808,-5.0848,-5.0908,-5.0982,-5.1043,-5.1059,-5.1082,-5.1083,-5.1101,-5.107,-5.1068,-5.1065,-5.1051,-5.1088,-5.1088,-5.1128,-5.1129,-5.1129]},{"header":{"parameterUnit":"m.s-1","parameterCategory":1,"la1":30.2991,"la2":30.254,"lo1":-89.0895,"lo2":-89.0444,"dy":0.0017,"dx":0.0017,"nx":28,"ny":28,"refTime":"2025-03-15T03:00:00:Z","depth":0,"parameterNumber":3,"parameterNumberName":"V-component_of_WINDS"},"data":[0,0,0,0,0,0,0,0,0,0,0,0,0,0,0,0,0,0,0,0,0,0,0,0,0,0,0,0,0,0,0,0,0,0,0,0,0,0,0,0,0,0,0,0,0,0,0,0,0,0,0,0,0,0,0,0,0,0,5.7162,5.7163,0,5.7296,5.7297,5.7299,5.7329,5.7328,5.7327,5.7326,5.7461,5.7465,5.747,0,0,0,0,0,0,0,0,0,0,0,0,0,5.6932,5.6936,5.7162,5.7163,5.7165,5.7295,5.7297,5.7299,5.7329,5.7328,5.7327,5.7326,5.746,5.7465,5.747,0,0,0,0,0,0,0,0,0,0,0,0,0,5.7045,5.6937,5.7161,5.7196,5.72,5.7295,5.7297,5.7299,5.7329,5.7328,5.7327,5.7325,5.7458,5.7464,5.7471,5.754,0,0,5.7491,5.7494,0,0,0,0,0,0,0,0,5.7038,5.7053,5.7189,5.7194,5.7199,5.7294,5.7265,5.738,5.733,5.728,5.7326,5.7325,5.7406,5.7417,5.7445,5.7546,5.7552,5.7492,5.7496,5.7499,5.7501,0,0,0,0,0,0,0,5.7031,5.7048,5.7215,5.7191,5.7197,5.7204,5.7219,5.7287,5.7349,5.7284,5.7287,5.7303,5.7409,5.7439,5.7449,5.7554,5.7492,5.7498,5.7502,5.7504,5.7722,5.7723,0,0,0,0,0,0,5.7017,5.7041,5.721,5.7219,5.7114,5.721,5.7226,5.7265,5.7349,5.736,5.7304,5.7303,5.7428,5.7441,5.7454,5.7543,5.7499,5.7505,5.7509,5.772,5.7722,5.7724,0,0,0,0,0,0,5.7012,5.7032,5.7205,5.7131,5.7153,5.7215,5.7259,5.7268,5.7298,5.7363,5.7374,5.7323,5.7428,5.7444,5.7519,5.7548,5.7508,5.7514,5.7718,5.7721,5.7723,5.772,0,0,0,0,0,0,5.7005,5.703,5.7057,5.7131,5.7157,5.7268,5.726,5.7272,5.731,5.7311,5.7384,5.7395,5.7428,5.7509,5.7526,5.7556,5.7519,5.7716,5.7719,5.7722,5.7718,5.7722,5.7726,0,0,0,0,0,5.6997,5.7049,5.7058,5.7078,5.7192,5.727,5.7285,5.7322,5.7312,5.734,5.7382,5.7393,5.7541,5.7516,5.7536,5.7568,5.7714,5.7718,5.7722,5.7716,5.7721,5.7726,0,0,0,0,0,0,5.6975,5.706,5.707,5.7148,5.7202,5.7275,5.7311,5.7326,5.7383,5.7381,5.7424,5.744,5.7513,5.7548,5.7519,5.7641,5.7627,5.7635,5.7616,5.7622,5.7626,5.7617,5.7525,0,0,0,0,0,5.698,5.7036,5.7107,5.7169,5.7195,5.7249,5.7284,5.7308,5.7365,5.7388,5.7435,5.7489,5.7549,5.7587,5.7645,5.7722,5.774,5.7754,5.7758,5.7761,5.7769,5.7815,5.7823,5.7737,5.7737,5.7737,0,0,5.6989,5.7042,5.7075,5.7166,5.721,5.7269,5.7267,5.7328,5.7372,5.7396,5.7472,5.7508,5.7572,5.7649,5.7686,5.768,5.7796,5.7767,5.7768,5.7774,5.782,5.7828,5.7835,5.774,5.7739,5.7739,0,0,5.7037,5.7082,5.7141,5.7186,5.7254,5.7289,5.7303,5.7375,5.7401,5.7476,5.7497,5.7549,5.7649,5.7695,5.7731,5.7799,5.7812,5.7816,5.7838,5.7883,5.7889,5.7896,5.7922,5.7931,5.7822,5.7822,5.7822,0,5.7041,5.713,5.7168,5.723,5.727,5.7296,5.7356,5.7397,5.748,5.7507,5.75,5.7629,5.7673,5.7763,5.778,5.7807,5.7826,5.7809,5.7885,5.7892,5.7898,5.7924,5.7934,5.7823,5.7823,5.7822,5.7822,0,5.7132,5.7193,5.7232,5.7314,5.7358,5.7418,5.7466,5.7506,5.7526,5.7562,5.764,5.7695,5.7766,5.7788,5.7807,5.7882,5.7877,5.7877,5.7864,5.7906,5.7932,5.7942,5.7823,5.7823,5.7823,5.7823,0,0,5.717,5.7274,5.7288,5.7327,5.7404,5.7452,5.7513,5.7584,5.7619,5.7675,5.7729,5.7814,5.7816,5.7857,5.7882,5.7921,5.7974,5.7917,5.7919,5.7928,5.8062,5.8064,5.8074,5.7982,5.7984,5.7986,5.8058,0,5.723,5.7343,5.738,5.7473,5.7532,5.7558,5.7612,5.7665,5.7701,5.7755,5.7794,5.7855,5.7851,5.7877,5.7916,5.7959,5.8002,5.7954,5.8034,5.8037,5.802,5.8087,5.8088,5.8153,5.8068,5.8069,5.807,0,5.7315,5.7375,5.7474,5.7547,5.7573,5.7621,5.769,5.7741,5.7803,5.7826,5.7873,5.7896,5.7962,5.7944,5.8037,5.8003,5.8038,5.8064,5.8068,5.8078,5.8058,5.8102,5.8175,5.8185,5.8086,5.8084,5.8083,0,5.7337,5.7442,5.7516,5.7548,5.7633,5.7667,5.7704,5.7764,5.7805,5.7865,5.7892,5.7958,5.7995,5.8045,5.8086,5.8068,5.8176,5.816,5.8198,5.8197,5.8221,5.822,5.8303,5.8239,5.8239,5.8239,5.8239,0,5.7401,5.7462,5.7528,5.7573,5.7643,5.7685,5.7752,5.779,5.7844,5.7898,5.7923,5.7973,5.8022,5.8079,5.811,5.8184,5.8199,5.8221,5.8229,5.822,5.8218,5.8245,5.8243,5.8241,5.8241,5.824,5.824,0,5.7438,5.7484,5.7568,5.7642,5.7663,5.7711,5.7775,5.7821,5.7857,5.7926,5.7944,5.8002,5.807,5.8115,5.8201,5.8222,5.8303,5.8309,5.8283,5.8288,5.8324,5.8321,5.843,5.8448,5.8369,5.837,5.837,0,5.7478,5.7525,5.7606,5.7645,5.7683,5.7744,5.7787,5.783,5.7873,5.7948,5.7985,5.8055,5.8114,5.8222,5.8271,5.8338,5.8347,5.8381,5.8357,5.8348,5.8351,5.8349,5.8355,5.8385,5.8386,5.8386,5.8387,0,5.7544,5.7565,5.7625,5.7695,5.7745,5.7801,5.7857,5.7887,5.794,5.7987,5.8058,5.8104,5.8194,5.8264,5.8335,5.8373,5.839,5.8393,5.8406,5.8399,5.8384,5.8395,5.8296,5.8391,5.8391,5.839,5.839,5.839,5.7586,5.763,5.7695,5.7762,5.7809,5.7862,5.7909,5.7953,5.8013,5.809,5.8111,5.8186,5.8248,5.8346,5.8386,5.8445,5.8441,5.8459,5.8464,5.8469,5.8471,5.8372,5.8458,5.8458,5.8458,5.8458,5.8458,0,5.7656,5.7699,5.776,5.7839,5.7892,5.7903,5.7966,5.801,5.8076,5.8133,5.819,5.8273,5.8341,5.8397,5.8467,5.8504,5.8514,5.8522,5.8521,5.853,5.8468,5.8452,5.8513,5.8513,5.8513,5.8513,5.8513,5.8513,5.7699,5.7776,5.7805,5.7906,5.7948,5.8023,5.8058,5.8107,5.8153,5.8245,5.8302,5.8338,5.8395,5.847,5.8534,5.8548,5.8574,5.8581,5.8598,5.854,5.8534,5.8528,5.8513,5.8586,5.8586,5.8655,5.8655,5.8656]}]]